Hourly Data Report for October 03, 2017

All times are specified in Local Standard Time (LST). Add 1 hour to adjust for Daylight Saving Time where and when it is observed.

WINNIPEG A CS
MANITOBA

49°55'00.000" N
97°14'58.000" W
238.70 m
502S001
71849
XWG

Download Data

Hourly Data (October 2017)
Hourly Data Report for October 3, 2017
Temp Definition
°C
Dew Point Temp Definition
°C
Rel Hum Definition
%
Wind Dir Definition
10's deg

Wind Spd Definition
km/h
Visibility Definition
km
Stn Press Definition
kPa
Hmdx Definition


Wind Chill Definition


Weather Definition


TIME
00:00 6.8 3.5 80 22 11   98.47     LegendNANA
01:00 5.1 3.7 91 17 2   98.43     LegendNANA
02:00 4.3 3.3 93 17 5   98.48     LegendNANA
03:00 3.0 1.6 90 22 5   98.49     LegendNANA
04:00 4.0 3.1 94 22 7   98.52     LegendNANA
05:00 4.2 3.8 97 20 1   98.56     LegendNANA
06:00 4.3 3.4 93 16 1   98.58     LegendNANA
07:00 5.1 4.1 93   0   98.65     LegendNANA
08:00 5.9 4.5 91 28 7   98.78     LegendNANA
09:00 6.8 4.1 83 28 8   98.84     LegendNANA
10:00 7.7 4.8 82 10 13   98.80     LegendNANA
11:00 8.9 4.9 76 18 8   98.89     LegendNANA
12:00 10.8 4.9 67 21 13   98.94     LegendNANA
13:00 10.3 4.4 67 20 17   98.97     LegendNANA
14:00 10.7 4.8 67 20 12   98.97     LegendNANA
15:00 12.1 4.4 59 23 6   98.96     LegendNANA
16:00 13.3 4.4 55 23 8   98.98     LegendNANA
17:00 13.7 4.0 52 26 6   99.01     LegendNANA
18:00 11.2 3.4 59 24 5   99.04     LegendNANA
19:00 8.9 2.9 66 26 13   99.11     LegendNANA
20:00 6.9 2.3 73 26 11   99.16     LegendNANA
21:00 8.1 3.6 73 25 8   99.16     LegendNANA
22:00 7.2 3.1 76 26 9   99.15     LegendNANA
23:00 6.2 2.8 79 26 12   99.15     LegendNANA

Notes on Data Quality.

Legend

  • E = Estimated
  • M = Missing
  • NA = Not Available
  • ‡ = Partner data that is not subject to review by the National Climate Archives
Date modified: